レモン-パンスターズ彗星

457P/Lemmon-PanSTARRS (2024)

English version
Home page
Updated on June 29, 2024

---------------------------------------------------------------------

・ プロフィール

・ 軌道要素

Epoch 2024 Mar. 31.0 TT = JDT 2460400.5
T 2024 Aug. 20.39383 TT                                 Rudenko
q   2.3320914            (2000.0)            P               Q
n   0.22897938     Peri.  104.40269     +0.18035994     +0.98357987
a   2.6460932      Node   175.97157     -0.93388716     +0.17328224
e   0.1186662      Incl.    5.22521     -0.30874758     +0.05043715
P   4.30
>From 110 observations 2016 July 3-2024 June 6, mean residual 0".5.

・ 光度変化

        m1 = 15.5 + 5 logΔ + 10.0 log r

---------------------------------------------------------------------

軌道要素はM.P.E.C. 2024-L140に掲載されたものです。
光度グラフはComet for Windowsで作成したものです。

---------------------------------------------------------------------

Copyright(C) Seiichi Yoshida (comet@aerith.net). All rights reserved.